Shirley, NY

9:12 AM EST on December 11, 2017 (GMT -0500)
Brookhaven

Weather History for KHWV - January, 2013

Change the Weather History Date:

Thursday, January 17, 2013

  Actual Average (KISP) Record (KISP)
Temperature  
Mean Temperature 38 °F -  
Max Temperature 44 °F 34 °F 55 °F (1999)
Min Temperature 33 °F 20 °F 2 °F (2009)
Degree Days  
Heating Degree Days 26    
Moisture  
Dew Point 29 °F    
Average Humidity 71    
Maximum Humidity 93    
Minimum Humidity 49    
Precipitation  
Precipitation 0.01 in - - ()
Sea Level Pressure  
Sea Level Pressure 30.02 in    
Wind  
Wind Speed 5 mph (WNW)    
Max Wind Speed 13 mph    
Max Gust Speed 20 mph    
Visibility 10 miles    
Events Snow    
Averages and records for this station are not official NWS values.
T = Trace of Precipitation, MM = Missing Value Source: NWS Daily Summary

Daily Weather History Graph

Daily Weather History Graph

Search for Another Location

Airport or City:

Trip Planner

Search our weather history database for the weather conditions in past years. The results will help you decide how hot, cold, wet, or windy it might be!

Date:

Astronomy

Jan. 17, 2013 Rise Set
Actual Time 7:12 AM EST 4:51 PM EST
Civil Twilight 6:42 AM EST 5:21 PM EST
Nautical Twilight 6:08 AM EST 5:54 PM EST
Astronomical Twilight 5:36 AM EST 6:27 PM EST
Moon 10:15 AM EST (1/17) 11:42 PM EST (1/17)
Length of Visible Light 10h 38m
Length of Day
9h 38m
Waxing Crescent, 37% of the Moon is Illuminated
Jan 17
Waxing Crescent
Jan 18
First Quarter
Jan 26
Full
Feb 3
Last Quarter
Feb 10
New

Hourly Weather History & Observations

Time (EST) Temp. Windchill Dew Point Humidity Pressure Visibility Wind Dir Wind Speed Gust Speed Precip Events Conditions
12:56 AM 37.0 °F 33.3 °F 35.1 °F 93% 29.92 in 9.0 mi SW 4.6 mph - N/A   Clear
1:56 AM 37.0 °F 34.5 °F 34.0 °F 89% 29.93 in 8.0 mi SSW 3.5 mph - N/A   Clear
2:56 AM 37.0 °F 34.5 °F 34.0 °F 89% 29.94 in 10.0 mi SW 3.5 mph - N/A   Clear
3:56 AM 37.0 °F 34.5 °F 33.1 °F 86% 29.93 in 10.0 mi SW 3.5 mph - N/A   Clear
4:56 AM 36.0 °F - 33.1 °F 89% 29.93 in 10.0 mi Calm Calm - N/A   Clear
5:56 AM 36.0 °F - 33.1 °F 89% 29.94 in 10.0 mi Calm Calm - N/A   Clear
6:56 AM 35.1 °F 32.2 °F 32.0 °F 89% 29.97 in 10.0 mi SSW 3.5 mph - N/A   Partly Cloudy
7:56 AM 36.0 °F 32.1 °F 32.0 °F 86% 30.01 in 10.0 mi WSW 4.6 mph - N/A   Clear
8:56 AM 39.9 °F 35.1 °F 30.0 °F 68% 30.04 in 10.0 mi WNW 6.9 mph - N/A   Clear
9:56 AM 39.9 °F 33.4 °F 28.9 °F 65% 30.05 in 10.0 mi WNW 10.4 mph - N/A   Clear
10:56 AM 41.0 °F 35.2 °F 28.9 °F 62% 30.04 in 10.0 mi NW 9.2 mph - N/A   Clear
11:56 AM 41.0 °F 34.3 °F 28.0 °F 60% 30.05 in 10.0 mi NNW 11.5 mph - N/A   Clear
12:56 PM 43.0 °F 36.4 °F 27.0 °F 53% 30.04 in 10.0 mi NW 12.7 mph - N/A   Clear
1:56 PM 44.1 °F 38.6 °F 27.0 °F 51% 30.04 in 10.0 mi NW 10.4 mph - N/A   Partly Cloudy
2:56 PM 44.1 °F 38.1 °F 26.1 °F 49% 30.04 in 10.0 mi NNW 11.5 mph 19.6 mph N/A   Clear
3:56 PM 42.1 °F 37.7 °F 25.0 °F 51% 30.05 in 10.0 mi NNW 6.9 mph - N/A   Clear
4:56 PM 41.0 °F - 27.0 °F 57% 30.07 in 10.0 mi Calm Calm - N/A   Clear
5:56 PM 39.0 °F - 28.0 °F 65% 30.09 in 10.0 mi Calm Calm - N/A   Overcast
6:56 PM 37.9 °F - 28.0 °F 68% 30.08 in 10.0 mi Calm Calm - N/A   Overcast
7:56 PM 39.0 °F 36.8 °F 28.9 °F 67% 30.08 in 10.0 mi NNW 3.5 mph - N/A   Overcast
8:56 PM 39.0 °F 35.7 °F 28.9 °F 67% 30.07 in 10.0 mi NNE 4.6 mph - N/A   Overcast
9:56 PM 36.0 °F 30.3 °F 27.0 °F 70% 30.07 in 4.0 mi North 6.9 mph - 0.00 in Snow Light Snow
10:35 PM 33.8 °F 29.6 °F 26.6 °F 75% 30.00 in 9.0 mi Variable 4.6 mph - 0.01 in   Overcast
10:56 PM 34.0 °F 31.0 °F 26.1 °F 73% 30.05 in 10.0 mi North 3.5 mph - 0.01 in   Overcast
11:56 PM 34.0 °F 26.6 °F 21.9 °F 61% 30.03 in 10.0 mi North 9.2 mph 18.4 mph N/A   Overcast